DW0494 Weather Reports


Display with metric or nautical units.
time (UTC)temp
F
wind
direction
speed
MPH
gust
MPH
rain 1hr
in
rain 24hr
in
rain mn
in
humidity
%
barometer
mb
20260510193406 63 135 0.0 0.0 0.00 0.00 0.00 81 1017.4
20260510192404 63 135 0.0 0.0 0.00 0.00 0.00 80 1017.3
20260510191404 63 135 0.0 0.0 0.00 0.00 0.00 80 1017.2
20260510190904 63 135 0.0 0.0 0.00 0.00 0.00 80 1017.2
20260510190404 64 135 0.0 0.0 0.00 0.00 0.00 80 1017.2
20260510185905 64 135 0.0 0.0 0.00 0.00 0.00 79 1017.2
20260510185403 64 135 0.0 0.0 0.00 0.00 0.00 79 1017.1
20260510184903 64 138 0.0 1.0 0.00 0.00 0.00 78 1016.9
20260510183905 64 140 0.0 1.0 0.00 0.00 0.00 79 1016.9
20260510183405 64 140 0.0 0.0 0.00 0.00 0.00 78 1017.0
20260510182904 64 140 0.0 0.0 0.00 0.00 0.00 79 1017.0
20260510182404 64 140 0.0 0.0 0.00 0.00 0.00 78 1016.9
20260510181904 64 140 0.0 1.0 0.00 0.00 0.00 78 1016.9
20260510181404 64 140 0.0 1.0 0.00 0.00 0.00 78 1016.9
20260510180905 65 140 0.0 1.0 0.00 0.00 0.00 78 1016.9
20260510180405 65 140 0.0 0.0 0.00 0.00 0.00 78 1016.9
20260510175905 65 140 0.0 0.0 0.00 0.00 0.00 78 1016.8
20260510175403 65 140 0.0 0.0 0.00 0.00 0.00 77 1016.8
20260510174404 66 140 0.0 0.0 0.00 0.00 0.00 76 1016.7
20260510173904 67 140 0.0 0.0 0.00 0.00 0.00 74 1016.8
20260510173404 67 140 0.0 0.0 0.00 0.00 0.00 73 1016.7
20260510172905 68 140 0.0 0.0 0.00 0.00 0.00 73 1016.7
20260510172403 69 140 0.0 0.0 0.00 0.00 0.00 71 1016.7
20260510171406 70 140 0.0 1.0 0.00 0.00 0.00 69 1016.7
20260510170904 70 140 0.0 1.0 0.00 0.00 0.00 68 1016.7
20260510170404 71 142 0.0 2.0 0.00 0.00 0.00 67 1016.7
20260510165904 72 93 0.0 2.0 0.00 0.00 0.00 67 1016.7
20260510165404 72 218 0.0 2.0 0.00 0.00 0.00 66 1016.8
20260510164904 72 92 0.0 3.0 0.00 0.00 0.00 67 1016.8
20260510164405 72 212 0.0 3.0 0.00 0.00 0.00 67 1016.7
20260510163903 72 70 0.0 1.0 0.00 0.00 0.00 69 1016.7
20260510163403 71 125 0.0 3.0 0.00 0.00 0.00 70 1016.7
20260510162905 70 162 0.0 3.0 0.00 0.00 0.00 69 1016.8
20260510162405 71 215 1.0 3.0 0.00 0.00 0.00 69 1016.8
20260510161903 71 213 1.0 3.0 0.00 0.00 0.00 68 1016.9
20260510150903 73 154 0.0 2.0 0.00 0.00 0.00 66 1016.7
20260510150404 73 143 0.0 2.0 0.00 0.00 0.00 67 1016.7
20260510145904 73 134 0.0 2.0 0.00 0.00 0.00 67 1016.8
20260510144904 73 157 1.0 5.0 0.00 0.00 0.00 66 1017.0
20260510144404 73 197 2.0 5.0 0.00 0.00 0.00 66 1016.9
20260510143906 74 204 2.0 5.0 0.00 0.00 0.00 66 1016.9
20260510142903 73 191 1.0 3.0 0.00 0.00 0.00 67 1016.9
20260510142404 73 159 1.0 3.0 0.00 0.00 0.00 69 1016.8
20260510141904 73 209 1.0 6.0 0.00 0.00 0.00 68 1016.8
20260510141404 73 228 2.0 6.0 0.00 0.00 0.00 68 1016.8
20260510140904 73 215 3.0 7.0 0.00 0.00 0.00 68 1016.9
20260510135909 73 194 5.0 10.0 0.00 0.00 0.00 68 1016.9
20260510135405 74 216 3.0 8.0 0.00 0.00 0.00 69 1017.0
20260510134903 75 212 5.0 8.0 0.00 0.00 0.00 66 1017.0
20260510134405 77 207 3.0 7.0 0.00 0.00 0.00 62 1017.0
20260510133905 78 218 2.0 5.0 0.00 0.00 0.00 58 1017.0
20260510133403 78 215 2.0 5.0 0.00 0.00 0.00 56 1016.9
20260510132404 78 208 0.0 2.0 0.00 0.00 0.00 56 1017.0
20260510131905 78 211 0.0 3.0 0.00 0.00 0.00 56 1017.0
20260510131404 78 203 0.0 3.0 0.00 0.00 0.00 58 1017.1
20260510130904 78 206 2.0 3.0 0.00 0.00 0.00 57 1017.2
20260510125905 78 200 1.0 3.0 0.00 0.00 0.00 58 1017.3
20260510125404 79 186 1.0 3.0 0.00 0.00 0.00 59 1017.3
20260510124905 79 206 1.0 2.0 0.00 0.00 0.00 57 1017.4
20260510124406 79 222 0.0 5.0 0.00 0.00 0.00 58 1017.5
20260510123904 79 224 2.0 5.0 0.00 0.00 0.00 58 1017.6
20260510123404 80 203 2.0 5.0 0.00 0.00 0.00 59 1017.8
20260510122405 80 235 1.0 5.0 0.00 0.00 0.00 58 1018.0
20260510121903 79 214 2.0 6.0 0.00 0.00 0.00 57 1018.1
20260510121404 79 222 2.0 6.0 0.00 0.00 0.00 57 1018.1
20260510120905 80 233 2.0 6.0 0.00 0.00 0.00 56 1018.1
20260510120406 80 285 2.0 10.0 0.00 0.00 0.00 53 1018.2
20260510115904 81 210 2.0 10.0 0.00 0.00 0.00 56 1018.3
20260510115404 80 9 1.0 6.0 0.00 0.00 0.00 50 1018.4
20260510114904 81 236 2.0 7.0 0.00 0.00 0.00 55 1018.3
20260510114404 80 213 3.0 7.0 0.00 0.00 0.00 55 1018.4
20260510113905 80 215 2.0 5.0 0.00 0.00 0.00 54 1018.3
20260510113404 80 329 2.0 5.0 0.00 0.00 0.00 55 1018.3
20260510112903 81 273 2.0 5.0 0.00 0.00 0.00 56 1018.4
20260510112403 80 247 2.0 5.0 0.00 0.00 0.00 56 1018.3
20260510111903 80 208 2.0 6.0 0.00 0.00 0.00 56 1018.4
20260510111404 80 230 3.0 6.0 0.00 0.00 0.00 56 1018.4
20260510110405 79 252 2.0 5.0 0.00 0.00 0.00 58 1018.6
20260510105404 78 246 1.0 6.0 0.00 0.00 0.00 60 1018.5
20260510104904 78 217 2.0 6.0 0.00 0.00 0.00 59 1018.6
20260510104403 78 167 2.0 6.0 0.00 0.00 0.00 60 1018.7
20260510103905 77 223 2.0 7.0 0.00 0.00 0.00 61 1018.8
20260510103404 77 235 3.0 7.0 0.00 0.00 0.00 60 1018.8
20260510102404 75 208 2.0 10.0 0.00 0.00 0.00 63 1018.9
20260510101905 75 247 4.0 10.0 0.00 0.00 0.00 62 1018.9
20260510101406 76 244 2.0 6.0 0.00 0.00 0.00 62 1018.9
20260510100904 76 214 2.0 6.0 0.00 0.00 0.00 62 1018.9
20260510095905 76 232 2.0 7.0 0.00 0.00 0.00 61 1018.8
20260510095404 77 225 3.0 7.0 0.00 0.00 0.00 59 1018.8
20260510094906 77 185 2.0 6.0 0.00 0.00 0.00 60 1018.7
20260510094405 77 215 2.0 8.0 0.00 0.00 0.00 60 1018.8
20260510093904 77 215 3.0 8.0 0.00 0.00 0.00 60 1018.8
20260510093404 77 234 3.0 8.0 0.00 0.00 0.00 60 1019.0
20260510092404 76 237 3.0 6.0 0.00 0.00 0.00 60 1019.0
20260510091905 77 247 2.0 5.0 0.00 0.00 0.00 62 1019.0
20260510091405 77 203 1.0 3.0 0.00 0.00 0.00 59 1019.1
20260510090903 77 191 1.0 6.0 0.00 0.00 0.00 61 1019.1
20260510090403 76 249 2.0 6.0 0.00 0.00 0.00 62 1019.1
20260510085905 76 196 1.0 3.0 0.00 0.00 0.00 62 1019.1
20260510085404 75 198 2.0 5.0 0.00 0.00 0.00 63 1019.2
20260510084904 75 242 1.0 5.0 0.00 0.00 0.00 64 1019.2
20260510084403 75 249 2.0 5.0 0.00 0.00 0.00 64 1019.2
20260510083905 76 195 1.0 5.0 0.00 0.00 0.00 64 1019.2
20260510082903 75 213 1.0 5.0 0.00 0.00 0.00 66 1019.2
20260510082403 74 227 1.0 3.0 0.00 0.00 0.00 67 1019.2
20260510081905 74 257 1.0 3.0 0.00 0.00 0.00 65 1019.1
20260510081404 74 15 1.0 3.0 0.00 0.00 0.00 65 1019.1
20260510080904 73 182 1.0 5.0 0.00 0.00 0.00 66 1019.2
20260510080404 73 287 1.0 5.0 0.00 0.00 0.00 68 1019.1
20260510075403 72 242 2.0 5.0 0.00 0.00 0.00 68 1019.2
20260510074903 72 273 2.0 5.0 0.00 0.00 0.00 67 1019.4
20260510074404 72 205 2.0 5.0 0.00 0.00 0.00 68 1019.5
20260510072904 70 239 2.0 6.0 0.00 0.00 0.00 70 1019.6
20260510072404 70 243 1.0 6.0 0.00 0.00 0.00 71 1019.5
20260510071905 69 275 2.0 6.0 0.00 0.00 0.00 71 1019.6
20260510071405 70 281 2.0 6.0 0.00 0.00 0.00 71 1019.5
20260510070905 69 247 1.0 6.0 0.00 0.00 0.00 73 1019.4
20260510070404 69 237 2.0 6.0 0.00 0.00 0.00 71 1019.3
20260510065404 68 206 1.0 5.0 0.00 0.00 0.00 73 1019.3
20260510064903 68 271 1.0 7.0 0.00 0.00 0.00 72 1019.2
20260510064404 68 259 2.0 7.0 0.00 0.00 0.00 72 1019.3
20260510063905 68 223 1.0 5.0 0.00 0.00 0.00 73 1019.3
20260510063406 67 238 2.0 5.0 0.00 0.00 0.00 73 1019.3
20260510062904 68 253 1.0 5.0 0.00 0.00 0.00 74 1019.3
20260510062404 67 260 2.0 5.0 0.00 0.00 0.00 73 1019.2
20260510061904 67 252 2.0 5.0 0.00 0.00 0.00 74 1019.2
20260510060404 66 252 0.0 3.0 0.00 0.00 0.00 79 1019.2
20260510054903 65 235 1.0 3.0 0.00 0.00 0.00 79 1019.3
20260510054405 66 238 2.0 3.0 0.00 0.00 0.00 78 1019.3
20260510053903 66 234 0.0 3.0 0.00 0.00 0.00 79 1019.1
20260510052903 66 239 0.0 2.0 0.00 0.00 0.00 78 1019.1
20260510052404 66 189 0.0 2.0 0.00 0.00 0.00 80 1019.0
20260510051904 65 233 0.0 2.0 0.00 0.00 0.00 81 1019.0
20260510051404 65 233 0.0 2.0 0.00 0.00 0.00 81 1019.0
20260510050905 65 238 0.0 2.0 0.00 0.00 0.00 81 1019.0
20260510050403 65 234 0.0 1.0 0.00 0.00 0.00 81 1019.0
20260510045903 65 293 0.0 1.0 0.00 0.00 0.00 79 1019.0
20260510045404 66 329 0.0 1.0 0.00 0.00 0.00 79 1019.0
20260510044905 65 329 0.0 1.0 0.00 0.00 0.00 81 1018.9
20260510044404 65 295 0.0 1.0 0.00 0.00 0.00 82 1019.0
20260510043904 64 271 0.0 1.0 0.00 0.00 0.00 82 1019.1
20260510043403 64 274 0.0 1.0 0.00 0.00 0.00 82 1019.1
20260510042905 63 273 0.0 1.0 0.00 0.00 0.00 84 1019.0
20260510041904 63 270 0.0 0.0 0.00 0.00 0.00 84 1019.1
20260510041404 62 270 0.0 0.0 0.00 0.00 0.00 85 1019.1
20260510040404 61 270 0.0 1.0 0.00 0.00 0.00 84 1019.0
20260510035904 61 270 0.0 1.0 0.00 0.00 0.00 83 1018.9
20260510035404 60 291 0.0 1.0 0.00 0.00 0.00 82 1018.9
20260510034904 60 27 0.0 1.0 0.00 0.00 0.00 82 1018.7
20260510033904 60 27 0.0 1.0 0.00 0.00 0.00 82 1018.7
20260510033404 60 27 0.0 2.0 0.00 0.00 0.00 82 1018.6
20260510032404 60 351 0.0 2.0 0.00 0.00 0.00 83 1018.4
20260510031905 59 349 0.0 1.0 0.00 0.00 0.00 83 1018.6
20260510031405 59 348 0.0 1.0 0.00 0.00 0.00 83 1018.5
20260510030903 60 340 0.0 1.0 0.00 0.00 0.00 83 1018.5
20260510030403 60 30 0.0 2.0 0.00 0.00 0.00 83 1018.5
20260510025905 59 14 0.0 2.0 0.00 0.00 0.00 84 1018.5
20260510024903 59 5 0.0 2.0 0.00 0.00 0.00 85 1018.3
20260510024403 58 358 1.0 2.0 0.00 0.00 0.00 86 1018.3
20260510023903 58 8 1.0 2.0 0.00 0.00 0.00 87 1018.3
20260510023405 58 21 0.0 1.0 0.00 0.00 0.00 87 1018.4
20260510022904 58 21 0.0 1.0 0.00 0.00 0.00 87 1018.4
20260510022404 59 21 0.0 1.0 0.00 0.00 0.00 87 1018.3
20260510021904 59 251 0.0 1.0 0.00 0.00 0.00 86 1018.4
20260510021404 60 251 0.0 0.0 0.00 0.00 0.00 85 1018.3
20260510020904 60 251 0.0 1.0 0.00 0.00 0.00 85 1018.4
20260510015905 61 333 0.0 2.0 0.00 0.00 0.00 81 1018.6
20260510015404 61 11 1.0 2.0 0.00 0.00 0.00 81 1018.5
20260510014904 60 4 1.0 2.0 0.00 0.00 0.00 82 1018.4
20260510014404 60 13 1.0 2.0 0.00 0.00 0.00 83 1018.3
20260510013904 60 345 0.0 3.0 0.00 0.00 0.00 82 1018.3
20260510013406 60 7 0.0 3.0 0.00 0.00 0.00 82 1018.3
20260510012404 60 13 0.0 2.0 0.00 0.00 0.00 83 1018.4
20260510011904 59 354 1.0 2.0 0.00 0.00 0.00 84 1018.4
20260510011404 60 9 0.0 2.0 0.00 0.00 0.00 84 1018.5
20260510010904 60 2 0.0 2.0 0.00 0.00 0.00 84 1018.5
20260510010404 60 337 0.0 2.0 0.00 0.00 0.00 84 1018.6
20260510005904 60 0 1.0 2.0 0.00 0.00 0.00 84 1018.5
20260510005405 60 5 0.0 1.0 0.00 0.00 0.00 84 1018.7
20260510004904 60 8 1.0 2.0 0.00 0.00 0.00 84 1018.6
20260510004404 60 8 1.0 2.0 0.00 0.00 0.00 84 1018.7
20260510003904 60 3 1.0 2.0 0.00 0.00 0.00 85 1018.7
20260510003404 60 9 1.0 2.0 0.00 0.00 0.00 85 1018.7
20260510002904 59 10 1.0 2.0 0.00 0.00 0.00 86 1018.6
20260510002403 59 16 1.0 2.0 0.00 0.00 0.00 87 1018.7
20260510001904 59 10 1.0 2.0 0.00 0.00 0.00 88 1018.7
20260510001404 59 0 1.0 2.0 0.00 0.00 0.00 89 1018.6
20260510000906 59 351 0.0 1.0 0.00 0.00 0.00 89 1018.6
20260510000404 58 7 0.0 1.0 0.00 0.00 0.00 90 1018.6
20260509235907 58 2 0.0 1.0 0.00 0.00 0.00 90 1018.6
20260509235404 58 45 0.0 1.0 0.00 0.00 0.00 91 1018.6
20260509234905 58 79 0.0 1.0 0.00 0.00 0.00 91 1018.7
20260509234404 58 82 0.0 1.0 0.00 0.00 0.00 91 1018.8
20260509232903 59 82 0.0 1.0 0.00 0.00 0.00 92 1018.8
20260509232403 59 82 0.0 1.0 0.00 0.00 0.00 92 1018.8
20260509231905 59 82 0.0 1.0 0.00 0.00 0.00 92 1018.9
20260509231403 59 82 0.0 1.0 0.00 0.00 0.00 92 1019.0
20260509230904 59 83 0.0 0.0 0.00 0.00 0.00 92 1019.1
20260509230403 60 83 0.0 0.0 0.00 0.00 0.00 92 1019.1
20260509225904 59 83 0.0 0.0 0.00 0.00 0.00 92 1019.1
20260509225405 60 83 0.0 0.0 0.00 0.00 0.00 92 1019.0
20260509224403 60 83 0.0 0.0 0.00 0.00 0.00 92 1019.1
20260509223904 60 83 0.0 0.0 0.00 0.00 0.00 92 1019.1
20260509222904 60 82 0.0 1.0 0.00 0.00 0.00 92 1019.2
20260509222404 60 82 0.0 1.0 0.00 0.00 0.00 92 1019.1
20260509221904 60 82 0.0 1.0 0.00 0.00 0.00 92 1019.1
20260509221406 61 82 0.0 1.0 0.00 0.00 0.00 92 1019.1
20260509220907 61 86 0.0 1.0 0.00 0.00 0.00 92 1019.1
20260509220404 61 86 0.0 0.0 0.00 0.00 0.00 92 1019.2
20260509215904 61 86 0.0 1.0 0.00 0.00 0.00 92 1019.2
20260509214404 61 89 0.0 0.0 0.00 0.00 0.00 93 1019.3
20260509213905 61 89 0.0 1.0 0.00 0.00 0.00 93 1019.3
20260509213404 61 89 0.0 1.0 0.00 0.00 0.00 93 1019.3
20260509212905 61 89 0.0 1.0 0.00 0.00 0.00 93 1019.3
20260509212404 61 89 0.0 1.0 0.00 0.00 0.00 93 1019.3
20260509211903 61 89 0.0 1.0 0.00 0.00 0.00 92 1019.3
20260509211403 61 89 0.0 0.0 0.00 0.00 0.00 92 1019.3
20260509210904 61 89 0.0 0.0 0.00 0.00 0.00 92 1019.4
20260509210404 61 89 0.0 1.0 0.00 0.00 0.00 92 1019.3
20260509205904 61 89 0.0 1.0 0.00 0.00 0.00 92 1019.3
20260509205404 61 89 0.0 1.0 0.00 0.00 0.00 92 1019.1
20260509204405 61 135 0.0 1.0 0.00 0.00 0.00 92 1019.0
20260509203905 61 135 0.0 1.0 0.00 0.00 0.00 92 1019.1
20260509202904 61 135 0.0 0.0 0.00 0.00 0.00 91 1019.0
20260509202405 61 135 0.0 1.0 0.00 0.00 0.00 91 1018.9
20260509201903 60 135 0.0 1.0 0.00 0.00 0.00 91 1018.8
20260509200905 61 187 0.0 0.0 0.00 0.00 0.00 90 1018.8
20260509195904 61 219 0.0 0.0 0.00 0.00 0.00 90 1018.8
20260509195404 62 219 0.0 0.0 0.00 0.00 0.00 91 1018.8
20260509194904 62 219 0.0 0.0 0.00 0.00 0.00 90 1018.8
20260509194405 62 219 0.0 0.0 0.00 0.00 0.00 90 1018.8
20260509193904 62 219 0.0 0.0 0.00 0.00 0.00 90 1018.8